{"data":{"norad_id":59876,"intl_designator":"2024-098U","name":"STARLINK-31935","alt_names":[],"object_type":"PAYLOAD","status":"ACTIVE","operator":null,"country":"US","launch_date":"2024-05-24","launch_site_code":"AFETR","launch_vehicle":null,"mission":null,"orbit_class":"UNKNOWN","rcs_meters":null,"size_class":null,"mass_kg":null,"dimensions":null,"purposes":["comms"],"wikipedia_slug":null,"has_3d_model":false,"image_url":null,"decayed_at":null,"tle_current":{"epoch":"2026-09-21T15:41:06.052128Z","epoch_age_seconds":74806,"freshness":"FRESH","line1":"1 59876U 24098U   26264.65354227  .00004550  00000+0  17486-3 0  9994","line2":"2 59876  43.0011 251.5215 0001080 256.7499 103.3232 15.27557958131810","mean_motion":15.27557958,"eccentricity":0.000108,"inclination_deg":43.0011,"raan_deg":251.5215,"arg_perigee_deg":256.7499,"mean_anomaly_deg":103.3232,"bstar":0.00017486,"rev_number":13181,"period_min":94.268108942024,"perigee_km":482.37408328423,"apogee_km":483.85611373751,"semimajor_km":6861.2520985109,"source":"CELESTRAK","updated_at":"2026-09-22T09:00:49.104121Z"}}}